Falls City, NE

4:08 AM CST on January 22, 2017 (GMT -0600)
Brenner

Weather History for KFNB - August, 2014

Change the Weather History Date:

Sunday, August 10, 2014

  Actual Average Record
Temperature  
Mean Temperature 74 °F -  
Max Temperature 80 °F 87 °F 98 °F (1980)
Min Temperature 69 °F 62 °F 51 °F (1989)
Cooling Degree Days 10    
Growing Degree Days 24 (Base 50)    
Moisture  
Dew Point 68 °F    
Average Humidity 85    
Maximum Humidity 94    
Minimum Humidity 65    
Precipitation  
Precipitation 0.09 in - - ()
Sea Level Pressure  
Sea Level Pressure 30.01 in    
Wind  
Wind Speed 6 mph (NE)    
Max Wind Speed 9 mph    
Max Gust Speed -    
Visibility 9 miles    
Events Rain , Thunderstorm    
Averages and records for this station are not official NWS values.
T = Trace of Precipitation, MM = Missing Value Source: NWS Daily Summary

Daily Weather History Graph

Daily Weather History Graph

Search for Another Location

Airport or City:

Trip Planner

Search our weather history database for the weather conditions in past years. The results will help you decide how hot, cold, wet, or windy it might be!

Date:

Astronomy

Aug. 10, 2014 Rise Set
Actual Time 6:29 AM CDT 8:25 PM CDT
Civil Twilight 5:59 AM CDT 8:55 PM CDT
Nautical Twilight 5:23 AM CDT 9:30 PM CDT
Astronomical Twilight 4:44 AM CDT 10:09 PM CDT
Moon 8:13 PM CDT (8/10) 6:22 AM CDT (8/10)
Length of Visible Light 14h 55m
Length of Day
13h 56m
Full, 100% of the Moon is Illuminated
Aug 10
Full
Aug 10
Full
Aug 17
Last Quarter
Aug 25
New
Sep 2
First Quarter

Hourly Weather History & Observations

Time (CDT) Temp. Heat Index Dew Point Humidity Pressure Visibility Wind Dir Wind Speed Gust Speed Precip Events Conditions
12:53 AM 72.0 °F - 69.1 °F 91% 29.98 in 10.0 mi East 6.9 mph - N/A   Scattered Clouds
1:53 AM 72.0 °F - 69.1 °F 91% 29.99 in 10.0 mi East 5.8 mph - 0.00 in Rain , Thunderstorm Light Rain
2:27 AM 72.0 °F - 69.1 °F 91% 30.02 in 8.0 mi NW 4.6 mph - 0.01 in Rain , Thunderstorm Light Rain
2:38 AM 72.0 °F - 69.1 °F 91% 30.02 in 7.0 mi NNW 4.6 mph - 0.01 in Rain , Thunderstorm Light Rain
2:44 AM 72.0 °F - 69.1 °F 91% 30.02 in 7.0 mi NW 4.6 mph - 0.01 in Rain , Thunderstorm Light Thunderstorms and Rain
2:53 AM 72.0 °F - 69.1 °F 91% 29.99 in 4.0 mi Calm Calm - 0.03 in Rain , Thunderstorm Thunderstorms and Rain
3:14 AM 72.0 °F - 69.1 °F 91% 30.01 in 5.0 mi West 6.9 mph - 0.06 in Rain , Thunderstorm Thunderstorms and Rain
3:23 AM 71.1 °F - 69.1 °F 93% 30.02 in 3.0 mi WSW 5.8 mph - 0.11 in Rain , Thunderstorm Heavy Thunderstorms and Rain
3:25 AM 71.1 °F - 69.1 °F 93% 30.02 in 2.5 mi SW 6.9 mph - 0.14 in Rain , Thunderstorm Heavy Thunderstorms and Rain
3:32 AM 71.1 °F - 68.0 °F 90% 30.01 in 2.5 mi WSW 4.6 mph - 0.17 in Rain , Thunderstorm Heavy Thunderstorms and Rain
3:40 AM 71.1 °F - 68.0 °F 90% 29.99 in 3.0 mi NNW 5.8 mph - 0.21 in Rain , Thunderstorm Heavy Thunderstorms and Rain
3:53 AM 71.6 °F - 68.0 °F 88% 29.99 in 8.0 mi NNE 4.6 mph - N/A Rain , Thunderstorm Light Rain
4:33 AM 70.0 °F - 68.0 °F 93% 30.00 in 10.0 mi SSE 6.9 mph - 0.03 in Rain Light Rain
4:53 AM 69.1 °F - 66.9 °F 93% 29.95 in 10.0 mi ENE 6.9 mph - 0.04 in Rain Light Rain
5:53 AM 69.1 °F - 66.9 °F 93% 29.96 in 10.0 mi East 3.5 mph - 0.01 in Rain Light Rain
6:44 AM 69.1 °F - 66.9 °F 93% 29.99 in 10.0 mi East 6.9 mph - 0.01 in   Overcast
6:50 AM 69.8 °F - 66.2 °F 88% 29.99 in 10.0 mi East 6.9 mph - 0.01 in   Overcast
6:53 AM 69.1 °F - 66.9 °F 93% 29.96 in 10.0 mi East 8.1 mph - 0.01 in   Overcast
7:33 AM 70.0 °F - 68.0 °F 93% 29.99 in 10.0 mi East 5.8 mph - N/A   Overcast
7:53 AM 70.0 °F - 68.0 °F 93% 29.98 in 10.0 mi ENE 4.6 mph - N/A   Overcast
8:53 AM 71.6 °F - 69.8 °F 94% 30.00 in 10.0 mi East 6.9 mph - N/A   Mostly Cloudy
9:10 AM 72.0 °F - 69.1 °F 91% 30.00 in 10.0 mi North 6.9 mph - N/A   Mostly Cloudy
9:53 AM 73.0 °F - 68.0 °F 84% 29.99 in 10.0 mi NNE 8.1 mph - N/A   Mostly Cloudy
10:22 AM 73.0 °F - 68.0 °F 84% 30.03 in 10.0 mi NNE 5.8 mph - N/A   Scattered Clouds
10:45 AM 73.9 °F - 68.0 °F 82% 30.04 in 10.0 mi NE 6.9 mph - N/A   Mostly Cloudy
10:53 AM 75.0 °F - 68.0 °F 79% 30.02 in 10.0 mi NE 8.1 mph - N/A   Mostly Cloudy
11:39 AM 75.0 °F - 68.0 °F 79% 30.05 in 10.0 mi ENE 6.9 mph - N/A   Overcast
11:50 AM 75.2 °F - 69.8 °F 83% 30.05 in 10.0 mi NNE 5.8 mph - N/A   Overcast
11:53 AM 75.0 °F - 69.1 °F 82% 30.03 in 10.0 mi NNE 8.1 mph - N/A   Overcast
12:16 PM 75.9 °F - 69.1 °F 79% 30.06 in 10.0 mi NNE 9.2 mph - N/A   Mostly Cloudy
12:53 PM 77.0 °F - 68.0 °F 74% 30.04 in 10.0 mi ENE 9.2 mph - N/A   Mostly Cloudy
1:53 PM 77.0 °F - 68.0 °F 74% 30.04 in 10.0 mi North 3.5 mph - N/A   Overcast
2:53 PM 78.1 °F - 69.1 °F 74% 30.03 in 10.0 mi Variable 4.6 mph - N/A   Overcast
3:53 PM 78.1 °F - 66.9 °F 68% 30.00 in 10.0 mi North 5.8 mph - N/A   Overcast
4:53 PM 79.0 °F - 68.0 °F 69% 30.00 in 10.0 mi North 6.9 mph - N/A   Mostly Cloudy
5:53 PM 80.1 °F 82.7 °F 68.0 °F 67% 29.99 in 10.0 mi Variable 5.8 mph - N/A   Clear
6:53 PM 78.8 °F - 66.2 °F 65% 30.02 in 10.0 mi North 6.9 mph - N/A   Clear
7:53 PM 75.0 °F - 68.0 °F 79% 29.99 in 10.0 mi NE 4.6 mph - N/A   Clear
8:53 PM 73.0 °F - 68.0 °F 84% 29.99 in 10.0 mi Calm Calm - N/A   Scattered Clouds
9:53 PM 73.0 °F - 68.0 °F 84% 30.01 in 10.0 mi Calm Calm - N/A   Partly Cloudy
10:53 PM 70.0 °F - 66.9 °F 90% 30.02 in 10.0 mi Calm Calm - N/A   Mostly Cloudy
11:53 PM 69.1 °F - 66.9 °F 93% 30.04 in 10.0 mi West 4.6 mph - N/A   Clear